Wind_Speed
63 63 63 61 58 57 57 57 55 52 51 49 45 45 46 44 44 46 47 47 46 46 43 41 40 38 37 37 37 38 35 33 33 32 32 34 33 31 30 29 28 27 29 30 28 25 24 24 24 24 23 23 23 23 24 24 24 24 24 24 25 25 25 24 24 23 22 22 22 22 23 23 22 21 20 20 20 21 22 22 22 22 23 22 22 21
65 65 64 60 57 57 58 58 56 54 52 47 43 46 47 45 43 43 45 45 46 48 45 43 43 40 39 39 38 40 38 34 33 32 31 33 34 33 32 30 29 29 30 31 28 25 25 25 25 25 24 24 24 24 25 25 26 25 25 25 26 26 25 25 25 25 24 24 24 24 24 24 23 22 21 20 21 22 23 24 24 24 24 23 23 23
69 67 64 61 58 59 61 62 60 56 53 47 45 48 48 47 46 42 40 42 45 47 45 44 45 42 40 41 40 41 41 36 34 33 31 32 35 35 33 31 31 31 32 32 28 26 27 26 26 25 24 24 25 26 26 26 27 27 26 27 28 28 27 27 27 26 26 27 26 25 24 23 23 22 22 22 22 23 24 25 25 26 25 24 24 24
72 69 65 63 61 61 63 64 63 60 58 52 47 50 50 49 47 41 40 41 42 45 44 44 47 44 40 41 43 43 44 40 36 35 34 33 33 33 33 33 33 32 33 33 30 28 28 28 27 26 26 26 27 26 26 27 28 28 28 29 30 30 30 30 29 29 29 29 27 25 24 24 24 23 23 23 24 25 26 26 26 26 25 25 25 25
71 68 66 65 63 63 63 64 64 63 61 57 51 49 50 50 46 42 42 42 40 43 43 42 46 46 40 39 40 43 47 45 40 38 36 35 34 32 34 35 35 34 33 33 32 30 30 29 28 28 28 28 27 27 26 28 29 30 30 31 32 33 33 32 32 32 32 30 27 26 25 25 25 25 25 25 25 26 27 27 27 27 26 26 26 27
70 68 67 65 64 64 64 64 64 62 61 59 56 53 51 50 46 43 45 44 42 43 44 41 42 44 41 39 38 38 44 45 43 41 38 37 37 35 34 34 35 35 34 34 34 32 31 30 30 30 29 29 28 28 28 29 30 31 32 33 34 35 34 34 34 35 34 31 29 28 27 26 26 26 26 26 27 27 27 28 28 27 27 27 27 28
70 69 67 66 65 65 66 64 62 60 60 60 59 57 55 52 47 44 46 47 45 45 44 40 40 42 40 39 39 38 40 42 41 41 40 39 40 38 36 34 34 36 36 36 35 34 32 32 32 31 31 30 30 30 31 32 32 32 33 34 36 36 36 36 37 37 36 33 31 30 28 28 27 27 27 28 29 29 28 28 29 28 28 29 29 30
72 70 68 67 66 67 66 62 61 60 59 60 59 57 55 51 47 46 48 49 48 48 46 41 41 43 37 34 37 38 39 41 41 40 40 40 41 41 39 35 34 36 37 37 37 35 34 33 33 32 32 32 32 33 34 33 33 33 34 35 36 37 38 38 39 39 37 35 33 31 30 29 28 28 29 31 31 30 30 29 30 30 30 30 31 31
72 71 71 69 67 68 65 60 61 59 58 60 58 54 51 48 46 47 49 50 50 50 48 43 43 44 37 31 32 35 37 40 41 39 40 39 40 41 40 38 35 35 36 38 38 37 35 34 34 34 34 34 34 35 35 34 34 34 35 35 36 37 38 39 40 40 39 37 35 33 32 30 30 30 31 33 33 32 31 31 31 31 31 32 32 33
73 72 71 68 66 67 63 59 60 57 55 59 56 49 48 47 46 47 48 50 51 52 50 45 44 45 39 32 30 32 33 34 34 34 36 38 38 40 41 39 37 36 36 37 38 38 37 36 36 37 36 36 36 36 36 36 36 35 36 36 37 38 39 40 41 41 41 39 38 36 34 33 32 33 34 35 35 34 34 33 33 33 33 33 34 34
72 71 68 65 62 62 59 57 56 53 53 57 51 45 47 48 48 48 49 51 51 52 51 46 45 46 41 34 30 31 31 29 28 28 29 31 33 36 40 41 40 38 37 37 37 37 38 38 38 39 38 37 37 37 37 38 38 37 37 38 39 40 40 41 41 42 42 42 41 39 37 36 36 36 36 36 36 36 36 35 35 35 34 34 35 35
72 71 69 64 60 59 59 57 54 53 54 55 50 46 47 48 49 50 51 52 53 53 52 48 47 48 43 34 29 28 29 30 30 31 30 29 29 30 34 39 41 41 40 40 39 39 39 40 40 40 39 39 38 38 38 40 40 40 40 40 40 41 41 42 42 43 44 44 43 42 41 40 39 38 38 37 38 38 37 38 38 36 35 36 36 36
72 71 70 66 62 61 61 57 54 55 57 57 53 50 51 51 51 52 52 54 54 54 53 50 47 47 43 37 31 27 28 32 32 33 34 34 33 32 32 34 37 40 42 44 43 42 42 42 41 41 41 41 40 39 39 41 41 42 42 42 42 42 42 43 43 44 45 46 45 44 44 43 42 41 40 39 39 39 39 39 39 38 37 38 38 37
72 72 72 69 67 66 63 58 55 58 60 61 59 56 55 56 56 55 55 55 54 54 54 50 46 45 43 41 37 30 28 32 31 31 33 34 36 36 35 34 34 36 39 42 45 45 46 45 44 43 42 42 42 41 41 42 42 43 43 44 44 43 44 44 44 45 46 46 46 46 46 45 44 43 42 41 41 40 40 41 41 40 40 40 40 39
72 75 75 73 71 69 65 61 59 58 57 58 59 57 56 57 54 52 52 52 51 51 52 50 47 45 43 43 40 32 29 32 32 31 31 32 34 36 37 37 36 36 36 38 41 45 46 47 47 46 44 43 44 44 43 43 43 43 44 44 45 45 45 45 45 46 46 47 47 48 47 47 46 45 44 44 43 42 42 43 43 42 42 42 42 41
69 71 72 71 72 69 66 64 63 61 58 58 58 57 56 56 53 51 51 51 50 50 52 52 50 47 45 44 41 34 30 30 31 30 30 31 33 35 37 38 37 38 37 37 38 41 44 46 47 47 47 46 45 45 45 45 45 45 45 45 45 46 46 46 46 46 46 47 48 48 48 48 48 47 46 46 44 43 44 44 45 44 44 44 44 43
65 65 65 66 68 67 66 65 64 62 62 62 62 60 57 55 54 53 52 51 50 52 53 53 51 48 46 46 43 36 30 28 29 30 29 29 31 33 35 36 38 38 38 38 38 38 41 44 46 47 49 49 48 47 47 47 47 47 47 46 46 46 47 47 47 47 47 47 48 48 49 49 49 49 49 48 46 45 46 46 46 45 45 46 46 45
63 62 63 64 66 67 68 68 64 61 61 63 62 60 55 54 54 52 50 49 50 53 54 53 52 49 47 47 43 36 30 28 28 30 29 29 30 31 32 34 37 38 39 39 38 37 38 41 45 47 48 50 50 49 49 49 49 49 48 48 47 47 47 47 48 48 48 48 49 49 50 50 50 51 51 50 49 48 48 47 47 46 47 48 48 47
62 62 62 64 67 67 69 69 67 66 65 64 62 59 55 54 55 53 52 53 54 55 56 55 54 52 48 46 42 36 32 30 27 27 28 28 28 29 31 33 35 37 38 39 39 38 37 37 41 45 47 49 51 51 51 51 51 51 50 50 49 49 48 48 49 49 49 50 50 51 51 51 51 52 52 52 51 51 51 50 49 48 49 50 50 49
62 63 63 63 66 67 68 68 68 69 69 67 65 63 60 59 58 57 55 55 56 56 56 56 56 53 48 45 41 37 34 30 27 26 26 28 28 28 30 31 33 35 37 39 40 40 39 38 37 40 43 47 50 52 52 53 53 52 52 52 51 51 50 49 49 50 50 51 52 52 52 52 53 53 54 54 54 53 53 52 51 51 51 52 51 51
61 62 62 63 65 67 68 68 66 66 66 65 65 65 64 63 63 62 59 57 56 56 54 54 55 52 48 44 39 35 34 32 30 29 27 27 28 28 29 31 32 33 35 37 39 41 41 41 39 38 39 42 45 49 51 52 53 53 53 54 54 54 53 51 51 51 51 52 53 53 54 54 54 55 55 55 55 55 54 53 52 52 53 53 52 53
64 62 62 63 64 64 65 64 63 63 62 60 61 61 62 61 61 60 59 55 53 52 50 50 54 53 49 46 39 34 35 35 34 32 30 30 30 30 30 30 31 32 34 36 38 40 41 41 41 40 39 39 41 44 48 50 51 52 53 54 55 56 55 54 53 52 52 53 54 54 55 55 56 56 57 56 56 56 55 54 54 54 54 54 54 55
66 63 62 63 63 62 62 61 60 61 61 61 62 62 61 59 58 56 55 52 50 50 50 52 56 55 51 49 44 37 37 39 37 35 32 31 31 31 30 30 30 31 32 34 36 38 40 41 41 41 40 40 41 42 44 47 49 50 52 54 56 57 57 57 56 54 54 55 55 55 56 57 57 57 57 58 57 57 57 56 56 56 56 56 56 57
67 67 65 64 63 63 62 59 58 58 61 63 63 62 62 60 58 55 54 53 53 53 53 55 59 57 53 50 43 38 39 41 39 36 32 30 30 31 32 32 32 32 33 34 34 35 37 40 41 42 41 41 42 42 43 45 47 49 51 53 55 57 58 58 58 57 56 56 57 57 58 58 58 58 58 58 58 58 58 58 57 58 58 58 58 58
67 69 68 65 64 65 64 62 60 59 60 61 60 59 59 59 58 57 57 58 59 58 56 58 60 57 54 49 41 37 40 40 38 37 34 32 32 32 33 35 35 36 36 37 37 36 36 38 40 42 43 43 42 42 42 43 44 47 49 52 54 56 58 59 59 59 58 58 58 58 59 59 59 59 59 59 59 59 59 58 58 59 59 59 59 59
68 69 68 68 68 68 66 63 60 59 60 61 61 60 60 60 60 60 59 61 62 60 59 61 60 56 53 49 42 39 40 38 37 38 38 37 36 35 36 37 39 39 39 39 39 38 37 38 39 40 42 43 44 43 43 42 42 44 47 50 53 55 57 59 60 60 60 60 60 60 60 60 60 60 60 60 60 60 60 59 59 59 59 60 60 60
69 68 68 68 67 63 61 58 56 56 59 61 61 62 63 63 62 61 61 61 60 57 58 57 54 51 50 49 45 42 41 38 36 39 41 41 40 40 40 40 41 41 41 41 41 40 39 39 39 40 41 43 45 46 46 46 45 44 45 47 51 54 57 59 60 61 61 61 61 61 60 60 61 60 60 60 60 60 60 59 59 59 59 60 60 60
71 69 66 65 64 63 60 56 54 54 55 55 54 55 56 55 54 55 55 54 50 51 54 50 45 46 48 46 46 45 43 40 38 40 42 42 41 41 41 42 43 44 45 45 45 44 42 41 40 40 41 42 44 46 47 48 49 48 48 48 49 52 56 59 60 61 61 61 61 61 61 61 61 61 60 60 60 59 59 59 59 59 59 59 59 60
71 70 67 65 65 64 61 58 56 55 54 53 51 50 49 47 47 47 48 48 47 51 54 47 42 46 47 44 43 45 45 43 39 39 41 41 41 43 43 45 46 47 47 48 49 48 47 46 44 42 42 42 43 45 47 48 49 50 51 51 51 53 55 58 60 61 62 62 61 61 61 61 61 60 60 60 59 59 59 59 59 59 59 59 59 60
67 68 69 68 66 63 61 60 58 56 54 54 53 52 50 47 47 48 49 48 49 53 54 48 47 48 45 41 40 41 44 45 41 38 38 38 40 43 46 48 48 48 49 50 51 51 51 51 50 49 48 46 45 45 46 47 48 49 51 52 53 54 55 56 59 61 62 63 62 62 61 61 61 61 60 60 60 59 59 59 59 59 59 59 59 59
64 67 68 68 68 65 62 60 59 57 56 54 54 53 51 50 49 50 49 47 50 52 49 47 49 47 40 37 37 37 41 45 43 38 37 38 41 43 46 48 49 50 51 52 52 52 52 53 52 52 51 50 49 48 47 47 47 48 50 52 53 55 56 57 59 61 63 63 63 63 62 61 61 61 61 61 61 60 60 59 59 59 59 59 59 59
63 66 66 67 70 69 64 62 61 58 56 56 56 55 54 52 50 47 44 45 48 46 41 43 45 40 33 32 33 36 41 43 42 41 42 43 44 44 45 46 47 48 50 50 50 50 50 51 51 51 50 50 50 49 49 49 48 48 50 51 53 55 56 57 58 60 62 63 64 63 62 61 61 61 61 62 62 62 61 61 60 60 59 59 59 58
61 63 66 68 70 70 69 68 65 61 62 62 58 53 51 50 49 47 45 44 43 41 39 40 37 31 30 31 31 34 39 42 43 46 48 47 45 44 43 43 44 45 46 47 47 48 48 49 49 49 49 50 50 50 50 50 49 49 50 51 53 55 56 57 57 59 60 62 63 63 62 62 61 61 61 62 62 62 62 62 62 61 60 59 59 58
59 59 63 67 69 70 71 70 68 69 67 58 49 47 49 49 49 49 46 42 41 39 38 36 33 32 34 35 34 36 39 41 43 45 47 47 47 46 44 42 42 43 45 46 47 47 48 49 50 50 50 51 51 51 51 50 49 49 49 50 52 54 56 57 58 58 58 59 60 61 61 61 61 61 61 62 62 62 62 62 62 62 61 60 59 58
60 59 61 65 68 69 68 68 71 71 59 46 42 45 48 49 48 47 45 43 42 41 39 37 36 37 37 36 37 38 38 39 41 42 45 47 48 47 45 44 45 45 46 47 48 49 49 50 51 51 51 51 51 51 51 51 49 48 48 49 51 53 56 57 59 59 59 58 58 59 59 60 60 60 60 61 61 61 61 62 61 61 61 60 60 59
62 61 60 64 69 69 68 69 68 59 47 43 45 46 46 46 46 46 45 43 41 40 40 38 35 34 35 35 37 37 38 41 43 42 44 47 47 46 46 47 48 49 49 49 49 49 49 49 49 50 50 51 51 51 51 51 51 49 47 47 50 52 55 58 59 61 60 59 58 58 58 58 59 59 59 59 59 59 59 60 60 60 60 60 60 60
61 62 60 63 67 67 68 68 61 54 53 52 49 46 44 42 40 41 41 37 35 36 37 34 32 33 36 37 39 41 42 45 44 40 40 43 45 47 48 49 50 51 50 51 51 50 49 48 47 47 47 48 48 48 48 49 50 50 49 48 49 51 54 56 59 61 62 61 60 59 58 57 57 57 58 57 57 57 57 57 58 58 59 59 59 59
59 62 59 58 60 62 64 63 58 57 56 49 42 41 40 38 38 42 43 41 38 38 37 36 35 38 40 41 41 42 43 43 39 36 36 40 43 47 50 51 52 52 51 50 50 49 48 47 46 45 45 45 44 44 44 45 47 48 49 49 49 51 52 54 57 60 62 63 63 61 60 58 57 57 56 56 56 56 56 56 56 57 58 58 59 59
57 60 57 54 55 58 60 58 55 53 48 41 39 40 41 42 43 46 48 46 42 40 40 38 38 39 40 40 40 41 41 39 35 34 37 41 45 48 50 51 52 54 53 51 49 47 46 46 45 45 45 45 44 44 44 44 45 45 47 48 48 50 52 54 56 58 59 61 62 61 60 59 59 58 58 57 57 57 57 57 57 58 58 59 59 59
56 58 58 55 52 51 51 50 48 46 43 42 43 43 44 45 46 49 50 44 38 39 41 40 40 40 39 39 40 41 40 37 35 37 42 45 48 50 50 50 51 52 52 51 49 48 47 47 48 48 48 47 46 45 44 44 44 45 46 46 47 49 51 53 55 57 58 59 60 59 59 58 58 58 58 57 57 57 58 58 59 59 59 60 60 60
54 57 58 56 52 51 50 48 46 45 44 43 44 46 48 49 49 51 49 42 39 42 44 42 41 40 39 40 40 40 39 38 39 42 45 48 49 50 50 50 50 50 50 50 50 50 50 51 51 51 51 50 49 48 47 46 45 45 45 45 46 47 49 51 54 56 58 59 59 60 59 58 57 57 57 57 57 57 57 57 58 58 59 59 59 59
54 57 59 59 57 55 53 51 50 48 46 45 47 50 52 54 54 52 48 45 45 47 46 42 38 37 38 40 39 38 40 41 42 44 46 48 49 49 49 49 49 49 51 52 53 54 54 54 54 53 52 51 50 48 47 46 45 45 45 45 45 46 47 49 51 54 56 58 59 60 60 60 59 58 58 58 58 58 58 58 59 59 59 59 59 58
51 55 58 60 60 58 55 55 53 48 44 45 50 51 51 53 54 51 48 48 47 47 45 41 36 35 37 38 38 40 42 44 46 48 49 50 50 50 51 51 52 53 53 54 55 55 55 55 54 53 51 49 48 46 44 44 43 43 43 43 44 45 46 48 50 52 54 56 57 59 60 60 60 59 59 59 59 59 59 59 59 58 57 56 55 53
51 53 53 53 55 55 52 51 48 43 43 47 50 50 50 51 51 49 48 46 45 43 42 40 38 37 37 39 41 44 46 47 49 50 50 50 50 50 51 52 52 53 53 53 53 53 52 52 51 50 48 46 44 43 41 40 40 40 41 41 42 43 45 47 48 49 51 52 53 55 56 57 58 58 58 58 57 57 56 55 54 53 51 49 48 47
49 49 48 48 50 50 47 44 43 42 44 47 48 49 50 49 47 44 43 41 41 42 41 40 40 41 42 44 46 47 48 49 49 49 48 48 48 49 50 50 50 50 50 49 48 47 47 47 46 46 44 42 41 40 38 38 38 38 39 40 41 42 43 45 46 47 47 48 49 50 51 52 53 53 53 53 52 51 50 49 47 46 45 44 44 44
45 45 46 48 49 50 47 45 44 44 45 46 46 48 49 46 41 39 37 38 40 41 40 41 43 45 46 47 47 47 47 47 48 48 47 47 47 48 48 48 48 47 46 45 44 44 44 44 44 43 42 41 40 39 38 38 38 38 39 40 40 42 43 43 44 45 45 45 46 47 48 48 49 49 48 47 46 45 44 44 43 43 43 44 44 45
45 44 45 47 49 49 48 46 46 47 48 47 45 45 44 40 35 32 33 35 36 38 40 43 46 48 49 47 46 45 45 46 47 47 47 47 47 46 46 46 46 45 45 44 44 44 44 44 44 43 42 41 40 39 39 39 39 39 40 40 41 42 42 43 44 44 44 45 45 45 46 46 46 45 44 44 43 43 43 43 43 44 44 45 46 46
46 46 47 49 50 50 49 48 49 51 51 48 46 43 41 38 36 34 34 34 36 38 42 46 48 48 47 45 44 44 44 45 46 47 48 48 46 45 45 45 45 46 46 46 46 46 46 45 45 44 43 42 41 40 40 40 40 41 41 41 41 42 42 43 43 44 44 45 45 45 45 44 44 43 43 43 43 44 44 45 45 46 46 47 48 48
45 46 46 46 48 51 51 51 52 53 53 52 51 48 43 40 39 37 36 38 41 43 44 46 46 45 45 45 45 45 45 45 46 48 49 48 46 45 45 45 45 47 47 47 47 47 46 46 46 44 44 43 42 42 42 42 42 42 42 42 42 42 42 43 43 44 44 45 45 45 45 45 45 45 45 45 45 45 46 46 47 48 48 49 50 50
46 44 43 45 48 49 49 50 51 52 52 52 52 48 42 37 36 37 39 42 45 46 45 45 45 45 46 47 47 47 47 47 47 48 49 47 46 45 45 45 45 46 46 46 46 46 46 46 45 45 45 44 44 44 44 43 44 44 44 44 44 44 44 44 45 45 45 45 46 46 46 46 47 47 47 47 47 48 48 49 49 50 50 51 52 52
47 43 44 46 47 45 44 46 48 48 48 48 46 43 38 35 36 39 42 44 46 47 47 47 48 48 49 49 49 50 49 49 49 49 47 46 45 45 44 44 44 44 45 45 46 46 46 46 46 45 46 45 45 45 45 45 45 45 45 46 46 46 47 47 47 47 47 47 48 48 48 49 49 49 49 49 49 50 50 51 51 52 52 53 53 54
Wind_Direction
222 223 224 223 222 222 223 226 229 232 234 236 235 235 238 238 235 236 238 240 241 240 238 239 236 227 225 228 233 239 241 243 245 242 241 244 245 245 244 243 241 240 241 243 243 242 243 244 246 247 248 249 248 248 248 248 248 244 241 239 237 233 228 228 230 235 240 244 249 254 258 262 265 268 268 268 269 269 269 269 269 269 269 270 272 273
221 222 223 223 223 223 224 226 228 230 233 235 237 236 237 239 237 236 238 241 243 242 239 239 239 233 228 227 230 238 242 242 245 246 244 244 245 246 246 246 246 245 245 246 246 245 246 246 246 247 247 249 250 249 248 247 247 246 243 240 238 236 232 232 235 239 243 246 248 251 256 261 265 268 268 268 268 268 269 270 271 271 272 273 274 275
220 220 221 222 222 222 224 226 228 230 232 234 236 235 236 239 239 237 237 239 242 243 240 240 240 237 233 230 229 237 243 242 242 247 247 245 245 246 247 247 247 247 248 249 248 247 248 248 248 248 249 250 251 250 250 250 249 248 245 241 239 237 234 234 237 242 245 247 248 252 256 261 265 267 267 267 266 267 268 269 271 272 274 276 277 277
221 219 219 220 221 222 223 226 228 230 232 233 234 235 235 237 240 239 238 238 241 245 244 242 241 238 236 235 233 237 243 242 241 243 246 246 246 247 249 249 248 248 250 252 250 248 249 250 251 251 250 250 250 252 253 252 251 248 245 242 240 238 237 237 239 242 245 248 250 255 258 261 263 264 264 265 265 265 265 267 270 272 275 277 277 278
224 222 221 220 220 222 223 226 228 230 233 233 234 235 236 239 240 240 241 240 241 245 246 245 243 239 237 238 237 238 242 244 242 242 244 247 249 249 251 251 250 250 251 253 253 250 249 250 251 251 251 251 252 253 254 254 252 250 247 245 242 241 240 241 242 244 246 249 252 255 258 260 261 262 263 263 264 264 266 268 270 273 275 277 278 278
224 224 223 223 222 223 224 226 228 230 233 235 236 237 239 241 242 242 243 243 242 244 246 246 245 241 237 238 239 240 242 244 243 242 243 245 247 250 252 252 251 251 251 253 254 252 250 250 250 250 251 252 254 255 254 253 252 250 249 248 246 244 243 244 245 247 249 250 252 254 257 259 260 262 264 264 264 265 267 269 271 273 275 276 277 277
224 224 224 224 225 225 225 226 228 230 234 236 236 238 241 243 243 243 244 245 244 244 244 245 247 244 237 236 240 241 243 244 243 242 245 246 246 249 252 251 250 250 251 251 253 253 252 251 251 251 252 253 253 253 253 252 252 251 250 249 248 247 247 247 247 249 250 251 253 255 256 258 260 262 264 264 264 265 267 269 271 272 272 273 274 276
223 224 225 225 226 228 227 227 229 230 233 236 236 238 241 242 242 242 243 245 245 246 246 244 246 246 238 234 240 243 244 245 246 245 247 248 249 250 251 251 250 249 249 250 252 252 252 252 253 253 253 252 252 252 253 254 255 255 254 252 251 250 250 250 250 251 252 252 253 254 256 258 260 262 263 263 264 265 266 268 269 270 271 272 274 276
221 223 225 225 226 228 228 228 230 230 232 236 237 237 240 241 241 241 243 244 245 247 247 245 247 247 240 234 240 244 245 246 248 249 249 250 252 253 251 249 250 249 248 250 252 253 253 253 254 254 253 253 252 253 254 255 256 256 257 257 256 254 253 252 253 253 253 253 253 253 255 257 258 259 261 262 263 264 265 266 267 269 270 272 273 275
222 223 225 226 227 229 229 229 231 231 232 235 237 236 238 239 240 241 243 244 246 246 247 246 248 249 244 238 239 243 245 245 248 251 251 251 252 254 251 248 248 248 247 247 251 254 256 255 254 254 254 254 254 255 256 256 256 257 258 258 258 256 255 253 253 253 253 253 253 253 253 254 256 257 258 259 261 263 264 265 266 267 269 270 272 274
225 225 226 226 227 229 230 232 233 233 233 235 236 236 237 238 238 239 240 243 245 246 246 246 248 250 247 239 235 239 242 244 248 252 254 254 254 254 253 250 248 248 248 246 248 250 253 255 254 255 255 255 256 256 256 257 258 257 257 258 258 257 256 255 254 253 253 252 252 252 253 253 254 255 257 258 260 262 263 264 265 265 267 269 271 274
224 226 227 227 227 228 229 230 231 233 233 235 236 236 237 238 238 238 239 241 243 245 246 245 245 248 247 241 235 236 240 243 248 254 257 257 256 255 254 252 250 249 248 247 247 248 251 254 255 256 255 255 256 256 257 258 259 259 258 258 258 258 258 258 256 255 254 253 251 251 252 253 254 255 257 258 260 261 262 264 264 265 267 268 270 273
222 225 227 227 227 228 229 229 229 231 232 234 235 236 238 238 238 238 239 241 243 245 246 245 244 246 248 249 245 239 239 242 245 252 257 258 259 258 257 257 256 252 250 249 250 251 253 256 257 256 256 255 254 254 256 258 259 260 260 260 260 260 260 259 258 257 256 256 255 253 253 255 256 257 259 260 261 262 263 264 265 266 267 267 269 271
220 222 224 225 226 227 228 228 229 232 233 234 235 236 238 239 239 239 239 241 242 245 247 248 248 247 249 252 251 243 240 243 243 247 254 257 259 260 258 258 259 259 256 254 254 255 256 258 258 257 256 255 253 252 253 255 257 259 260 261 262 262 261 261 260 259 258 258 258 257 257 257 258 259 261 262 263 264 264 265 266 267 267 268 269 271
219 221 221 222 225 226 228 229 230 233 235 237 238 238 238 240 241 243 243 244 245 247 249 251 251 249 248 250 252 250 245 245 245 246 249 253 257 260 261 260 260 262 263 260 257 256 257 258 258 258 257 255 253 251 252 253 254 256 258 260 262 262 263 262 262 261 260 259 259 259 259 259 261 261 262 263 265 266 267 267 267 267 268 269 269 271
222 223 223 223 224 225 227 228 229 230 231 233 235 236 237 240 242 243 244 244 245 247 247 248 248 248 248 249 252 253 248 246 248 248 249 251 254 258 262 264 263 262 262 263 261 259 258 258 258 258 257 256 254 252 251 252 253 254 255 257 259 261 262 263 263 263 262 261 261 261 261 261 262 263 263 264 266 266 266 266 267 267 268 269 270 271
222 224 224 225 227 227 227 228 229 230 232 232 233 234 236 239 240 242 244 245 246 246 246 247 248 248 250 249 250 254 252 248 249 250 251 251 253 257 260 264 265 263 262 262 262 262 260 259 258 257 257 257 256 253 251 251 252 253 253 254 256 258 261 263 264 264 264 264 263 262 262 262 262 263 264 265 266 266 266 266 267 267 268 269 270 271
221 222 222 223 225 227 228 229 229 230 232 234 236 236 237 238 240 241 244 246 247 247 247 247 248 248 249 249 251 257 259 255 250 251 253 254 256 258 260 262 264 266 266 264 264 264 264 263 260 259 258 258 258 256 253 252 251 252 253 253 255 256 258 261 262 263 264 264 264 263 263 263 263 264 264 265 266 266 267 268 268 269 269 269 270 271
221 222 223 223 224 225 226 228 227 227 229 232 235 237 237 238 239 240 241 244 246 248 248 248 248 248 248 250 255 260 261 260 256 253 253 255 257 258 260 262 264 266 269 268 267 267 267 267 265 263 261 260 261 260 258 255 254 253 253 253 254 255 257 258 260 262 263 264 264 264 264 264 264 264 265 265 266 267 268 269 270 270 270 270 271 272
220 222 224 225 225 225 226 226 226 227 229 230 232 233 234 236 238 239 240 243 246 248 249 249 249 247 247 251 257 261 262 262 261 257 254 254 254 256 258 261 263 265 267 269 270 270 269 269 269 268 266 264 263 263 262 261 259 257 256 256 255 255 255 256 257 259 261 262 263 264 264 264 264 265 265 266 266 267 268 269 271 271 271 272 272 273
218 221 223 224 226 226 227 228 229 231 232 233 235 235 235 236 237 238 239 240 243 245 247 249 249 247 247 250 255 261 263 262 262 261 259 258 257 257 257 259 262 265 267 269 270 271 271 270 270 270 270 269 268 267 266 265 263 262 260 259 257 256 255 255 256 258 259 260 262 263 264 264 264 265 265 266 267 268 269 270 271 271 271 272 272 272
217 219 221 223 225 227 229 230 230 231 232 234 236 239 240 241 241 242 243 243 245 249 251 253 252 248 248 250 252 256 260 261 264 265 266 266 265 263 262 263 264 265 267 270 271 272 272 272 271 270 271 271 271 270 269 268 267 265 262 260 259 258 257 257 257 257 259 260 261 262 263 263 264 265 266 267 267 268 269 269 269 270 270 271 271 271
219 220 221 223 225 226 228 230 230 231 232 232 233 235 237 239 241 243 245 246 247 249 250 253 251 246 245 249 250 254 258 261 264 266 267 268 269 269 269 269 268 266 267 269 270 272 273 273 273 271 270 270 269 269 270 269 269 267 264 261 259 258 257 257 257 257 258 260 261 261 262 262 263 264 265 266 267 267 268 268 269 269 270 270 270 271
220 221 222 223 225 226 227 229 231 231 231 232 234 236 238 239 240 241 242 243 244 244 245 249 249 244 244 248 252 256 259 260 262 263 262 263 265 270 273 273 273 272 271 271 270 271 272 273 273 272 271 270 269 268 268 268 268 267 265 263 261 259 258 258 257 257 258 259 260 261 262 262 263 263 264 265 266 267 268 268 269 269 270 270 271 271
220 222 223 223 224 225 225 225 227 228 230 232 234 237 239 241 241 240 240 242 243 243 244 247 248 246 247 251 253 256 258 259 262 263 263 264 265 268 272 274 276 276 276 276 274 272 270 270 271 272 272 272 271 271 271 270 269 268 266 265 262 261 260 259 259 258 259 259 260 261 261 262 263 263 263 264 265 266 267 268 268 269 269 270 271 272
221 224 224 224 223 224 226 227 229 231 233 233 233 234 235 237 238 239 240 241 242 243 245 247 247 247 250 252 252 254 257 259 262 265 267 269 270 271 272 273 275 275 276 276 274 272 270 268 268 268 268 269 270 271 273 273 272 270 268 266 264 262 261 260 259 259 259 260 261 261 262 262 263 263 264 264 265 266 266 267 268 268 269 270 271 271
222 225 227 227 228 229 232 235 235 236 235 233 232 232 233 234 234 235 236 237 240 244 245 246 247 247 249 253 253 253 256 258 261 264 267 269 271 273 273 273 273 274 274 274 273 272 271 269 268 267 266 266 266 267 269 271 272 271 269 267 266 264 262 261 260 259 259 260 261 261 262 263 263 263 264 265 265 266 267 267 268 268 269 269 270 271
223 225 227 228 230 232 235 237 237 238 238 237 238 238 238 239 240 240 240 241 242 246 247 246 248 248 248 252 254 253 253 257 261 263 265 267 269 271 272 273 274 274 274 273 273 272 271 270 268 266 265 265 265 265 265 267 268 269 269 268 266 265 263 262 260 259 259 259 260 261 261 262 263 263 264 264 265 266 266 267 267 268 268 269 270 270
225 227 227 228 230 231 233 234 235 236 238 238 239 241 243 245 246 246 246 245 245 247 248 247 248 248 246 248 253 254 254 256 259 263 264 266 268 270 271 272 273 273 274 273 273 273 272 272 270 269 266 265 264 264 264 265 265 266 267 267 266 265 263 262 261 260 260 259 260 260 261 261 262 262 263 264 264 265 265 266 266 267 268 268 269 270
225 227 228 229 231 232 233 233 233 234 236 236 237 238 239 239 239 241 243 243 243 245 246 245 246 246 245 247 251 254 256 258 260 263 265 266 267 269 270 271 272 273 273 273 273 273 273 274 273 273 271 269 267 265 265 265 266 266 267 267 267 266 264 263 262 261 260 260 260 260 261 261 262 262 263 263 264 264 265 265 266 266 267 268 269 270
224 226 228 228 230 232 234 235 235 235 236 236 236 236 236 235 235 237 241 241 242 244 246 246 247 246 244 247 249 250 254 258 260 263 264 263 264 265 267 269 272 273 274 274 274 274 275 275 275 275 274 273 272 271 270 269 268 267 267 267 267 266 265 264 262 260 260 260 260 260 260 261 262 262 263 263 264 264 265 265 266 267 267 268 269 270
224 225 226 226 227 229 231 234 235 235 235 234 233 233 235 237 239 242 244 243 243 246 246 245 245 244 241 243 245 246 249 255 259 261 261 261 262 263 265 269 271 273 274 275 276 277 277 277 277 277 276 275 275 274 273 272 271 269 267 266 266 266 265 264 262 261 260 259 260 260 260 261 262 262 263 263 264 264 265 266 266 267 268 268 268 269
225 226 225 224 225 226 227 230 233 234 235 234 233 235 239 242 242 242 241 240 241 242 241 239 239 239 237 237 239 241 245 250 254 257 260 262 264 265 267 269 270 272 273 275 277 277 277 277 276 276 276 275 274 273 273 272 271 270 268 267 267 266 266 265 263 262 260 260 260 260 261 261 262 262 263 263 264 264 265 266 266 267 268 268 269 269
226 227 226 225 226 227 227 229 232 235 236 235 234 236 240 241 240 238 237 238 241 241 239 236 234 234 235 234 233 235 240 244 249 255 261 266 268 270 271 271 271 271 272 273 274 275 275 275 275 274 274 273 273 273 273 272 271 270 269 268 268 268 267 267 265 264 262 261 260 260 261 262 262 262 263 263 264 264 265 266 266 267 268 268 269 269
227 227 227 227 227 228 229 230 233 234 234 231 230 231 233 234 235 235 235 235 236 236 235 231 229 230 232 234 235 237 241 245 249 253 259 264 267 270 272 273 273 272 272 272 271 271 272 273 273 274 274 274 275 275 275 275 275 273 271 270 269 269 268 268 267 266 264 262 261 261 261 262 262 263 264 264 265 265 266 266 267 267 268 268 269 270
226 227 229 229 227 227 227 229 231 230 229 229 228 228 228 230 230 232 232 232 232 233 233 231 230 233 238 241 242 243 245 247 248 251 256 261 265 268 270 271 273 273 273 273 272 273 273 274 275 276 277 277 277 278 278 278 278 277 274 271 269 268 268 268 267 266 265 264 263 262 262 262 263 264 265 265 266 266 267 267 268 268 269 270 271 273
225 226 229 230 229 227 227 230 230 229 231 230 227 227 229 232 234 238 239 236 234 236 238 236 234 236 239 241 242 243 244 245 248 254 260 264 265 267 268 270 271 272 273 273 274 274 275 277 278 279 279 279 279 279 279 279 279 278 276 273 270 269 268 268 266 265 264 263 262 262 262 262 263 264 265 266 266 267 268 268 269 270 271 272 274 275
225 224 225 229 229 228 228 230 230 232 233 230 226 228 231 231 233 238 239 234 230 232 234 233 232 233 235 238 241 245 246 247 253 260 263 265 266 267 268 269 270 271 271 272 273 275 276 278 279 280 280 281 281 281 281 280 278 277 276 274 272 271 270 268 267 265 263 262 261 261 261 262 263 264 265 266 267 268 268 269 270 271 273 274 274 275
225 225 224 226 228 227 228 230 231 233 233 228 226 227 227 226 227 231 235 234 232 233 236 237 237 236 238 240 244 247 249 252 258 260 259 262 265 266 268 269 269 270 270 271 271 272 274 277 279 280 281 282 283 283 283 281 279 277 276 275 274 273 271 270 268 266 265 263 262 262 262 263 264 264 265 266 267 268 269 270 271 272 273 274 275 276
223 224 224 224 224 225 228 231 232 233 231 229 227 225 224 226 226 228 235 240 238 237 238 239 238 238 240 243 246 249 253 257 259 257 257 262 266 266 266 266 266 267 268 268 269 270 272 275 278 280 282 283 283 283 283 281 279 277 275 275 274 273 272 271 270 269 267 265 263 264 265 265 266 266 267 267 268 269 270 271 272 273 274 275 276 277
223 223 223 223 223 224 227 230 231 231 229 228 227 225 224 225 225 230 238 242 239 237 237 235 235 238 242 246 249 253 257 260 260 260 261 264 264 263 262 261 261 263 264 267 270 273 275 278 279 280 281 282 282 282 281 280 278 276 275 274 273 272 272 272 271 270 269 268 265 265 265 266 268 269 270 271 272 273 273 274 275 276 277 277 278 279
222 220 220 220 222 223 225 228 229 228 226 225 226 225 225 227 230 235 240 239 237 238 238 237 238 242 246 250 253 256 259 260 261 261 260 260 259 259 259 260 262 264 266 270 273 276 279 280 281 281 282 282 282 281 280 279 277 276 274 273 271 271 271 270 270 270 270 269 268 267 266 267 268 269 271 272 273 274 275 276 277 278 279 279 280 280
226 224 222 221 220 221 221 222 224 224 223 224 227 228 228 230 232 235 236 235 237 239 241 243 245 246 247 251 253 255 255 256 257 258 258 258 260 261 264 266 268 270 272 274 276 278 279 280 281 281 282 282 283 282 281 279 277 275 274 272 271 271 271 270 270 269 269 269 269 269 269 269 270 270 271 272 273 274 275 276 277 278 279 279 280 280
228 228 227 225 224 223 223 224 225 225 225 227 229 232 235 236 236 236 237 236 237 238 241 245 247 245 245 247 248 250 251 253 255 257 260 262 265 268 271 272 273 274 275 276 277 278 278 279 281 282 283 284 284 283 282 279 276 274 273 272 271 271 271 271 271 271 270 270 270 270 271 271 272 272 273 274 275 276 277 278 278 279 280 280 281 282
226 227 228 228 229 231 233 235 235 233 232 234 236 237 239 240 241 241 240 239 239 240 241 243 243 243 243 243 245 247 250 253 257 260 263 266 268 270 271 271 272 273 273 274 275 277 278 280 281 282 283 284 284 283 282 279 276 273 272 271 271 271 271 271 272 272 272 272 271 272 272 273 273 274 275 276 276 277 278 279 280 281 282 283 284 285
226 226 225 225 228 231 233 234 235 235 237 240 243 242 241 241 242 242 241 241 241 241 241 241 242 242 243 243 246 250 254 258 262 264 265 266 266 266 266 267 268 269 270 272 274 276 277 278 279 280 282 283 283 283 282 280 278 275 274 273 272 271 271 271 271 272 272 272 272 273 273 274 275 276 276 277 278 279 280 281 283 284 284 285 286 286
225 225 223 221 221 224 225 225 226 229 232 236 240 242 240 238 239 241 241 240 238 238 238 238 239 240 242 245 249 253 257 261 263 265 265 265 265 265 266 267 268 270 272 274 275 276 277 278 279 280 281 281 282 282 281 280 279 277 276 274 273 273 273 272 273 273 274 274 275 275 275 276 277 278 279 280 281 282 283 284 284 285 285 285 285 286
221 222 222 221 219 220 220 221 222 225 228 228 230 232 231 229 231 236 238 237 236 234 234 235 237 240 243 247 251 253 256 259 262 265 265 265 266 267 268 269 271 273 274 275 275 276 276 277 277 278 279 280 281 281 280 280 279 277 276 275 274 274 274 273 274 274 275 275 276 276 276 277 278 280 281 282 283 284 284 285 285 285 285 286 286 286
219 220 221 223 223 222 221 221 222 224 225 224 223 224 225 226 230 234 236 237 237 236 236 237 240 242 245 248 250 252 255 258 261 263 264 265 267 268 269 270 271 272 273 274 274 273 273 274 275 277 278 279 280 280 279 279 278 277 276 275 274 274 274 273 273 274 274 275 276 277 278 279 281 282 283 284 285 285 285 286 286 286 286 286 286 286
216 217 218 222 224 223 223 225 226 226 226 225 224 225 226 228 231 233 235 238 240 241 241 242 243 244 245 247 248 251 253 256 258 260 262 265 267 268 270 270 270 271 271 271 272 272 273 273 274 276 277 278 279 279 278 278 277 276 276 276 275 275 275 275 275 276 276 277 278 278 279 280 282 283 283 284 285 285 285 285 285 285 285 285 285 285
215 217 218 222 224 223 225 228 229 229 229 229 230 231 231 231 231 232 233 236 240 242 242 242 242 242 243 244 246 249 251 254 257 259 262 265 267 269 270 270 270 270 269 269 270 271 272 273 274 274 275 277 278 278 278 277 277 276 276 276 276 276 277 277 278 278 279 279 280 281 281 282 282 283 283 284 284 284 284 284 284 285 285 285 285 285
Height
5764 5766 5768 5775 5781 5785 5787 5789 5791 5795 5795 5798 5804 5806 5807 5810 5813 5814 5816 5818 5820 5821 5823 5825 5828 5832 5835 5835 5835 5835 5837 5840 5841 5843 5844 5845 5847 5848 5849 5850 5851 5852 5851 5851 5853 5856 5858 5859 5860 5861 5863 5864 5865 5866 5866 5867 5868 5869 5870 5871 5871 5872 5873 5874 5875 5876 5877 5877 5878 5878 5879 5879 5880 5880 5880 5880 5880 5879 5879 5879 5879 5878 5878 5878 5877 5877
5758 5760 5767 5775 5780 5783 5785 5786 5789 5791 5792 5797 5802 5803 5804 5807 5809 5812 5814 5816 5816 5817 5821 5823 5823 5828 5832 5833 5833 5833 5834 5837 5839 5841 5843 5843 5844 5845 5847 5849 5849 5850 5849 5849 5852 5855 5856 5857 5858 5859 5861 5862 5863 5864 5864 5865 5866 5867 5868 5869 5869 5870 5872 5873 5873 5874 5875 5875 5875 5876 5877 5877 5878 5878 5878 5878 5878 5877 5877 5877 5876 5876 5876 5876 5875 5875
5750 5757 5767 5772 5775 5779 5780 5782 5785 5788 5789 5794 5798 5798 5801 5803 5805 5810 5812 5813 5813 5813 5817 5819 5819 5824 5828 5829 5831 5830 5831 5835 5837 5838 5840 5840 5841 5842 5844 5846 5847 5848 5848 5848 5851 5853 5853 5855 5856 5857 5859 5860 5861 5861 5862 5863 5864 5865 5866 5867 5867 5868 5870 5870 5871 5872 5872 5872 5873 5874 5874 5875 5875 5876 5876 5876 5875 5875 5875 5874 5874 5874 5874 5874 5873 5873
5747 5756 5763 5766 5769 5772 5774 5777 5781 5784 5785 5790 5793 5795 5797 5800 5803 5808 5809 5810 5811 5810 5813 5815 5816 5820 5825 5826 5828 5828 5828 5832 5835 5835 5836 5837 5838 5840 5842 5843 5844 5845 5846 5846 5849 5851 5851 5852 5854 5856 5857 5857 5858 5860 5861 5862 5862 5863 5864 5864 5865 5866 5867 5868 5869 5869 5869 5870 5871 5872 5873 5873 5873 5873 5873 5873 5873 5873 5872 5872 5872 5871 5871 5871 5871 5870
5749 5756 5759 5760 5763 5766 5770 5773 5775 5779 5782 5785 5790 5792 5795 5797 5801 5805 5806 5807 5809 5808 5809 5811 5812 5815 5822 5823 5825 5827 5826 5829 5832 5832 5834 5835 5836 5838 5839 5840 5842 5843 5844 5845 5846 5848 5849 5850 5851 5853 5854 5855 5856 5858 5859 5859 5860 5860 5861 5861 5862 5863 5864 5865 5866 5866 5867 5868 5869 5870 5870 5871 5871 5871 5871 5871 5871 5870 5870 5870 5869 5869 5869 5868 5868 5867
5746 5752 5754 5757 5760 5762 5765 5768 5772 5776 5779 5782 5786 5789 5791 5794 5799 5802 5802 5803 5806 5805 5806 5808 5809 5811 5818 5820 5822 5824 5823 5825 5829 5830 5831 5832 5833 5834 5836 5838 5840 5841 5842 5843 5844 5846 5847 5848 5849 5850 5851 5853 5854 5856 5856 5856 5857 5858 5858 5859 5859 5861 5862 5863 5863 5863 5864 5866 5867 5867 5868 5868 5868 5868 5868 5868 5867 5867 5867 5867 5867 5867 5866 5865 5865 5864
5739 5745 5749 5753 5757 5759 5761 5766 5770 5774 5776 5778 5782 5785 5788 5791 5796 5798 5798 5799 5802 5802 5803 5807 5807 5807 5813 5818 5819 5821 5821 5822 5825 5827 5828 5829 5830 5831 5833 5835 5837 5837 5839 5840 5841 5842 5844 5845 5846 5847 5849 5850 5852 5852 5852 5853 5854 5855 5856 5856 5857 5858 5859 5860 5860 5860 5861 5863 5864 5864 5865 5865 5865 5865 5865 5864 5864 5864 5864 5864 5864 5864 5863 5863 5862 5861
5734 5740 5743 5748 5753 5754 5758 5764 5768 5770 5773 5774 5778 5782 5784 5789 5792 5793 5794 5795 5797 5798 5800 5805 5805 5802 5808 5815 5816 5817 5819 5819 5821 5824 5825 5826 5827 5829 5830 5832 5833 5834 5836 5837 5838 5839 5841 5842 5843 5845 5846 5847 5848 5848 5848 5850 5852 5852 5853 5854 5854 5855 5856 5857 5857 5857 5858 5860 5861 5861 5861 5861 5862 5862 5861 5860 5860 5860 5861 5861 5861 5861 5860 5860 5859 5858
5732 5735 5738 5744 5748 5748 5756 5763 5763 5766 5770 5770 5774 5779 5782 5785 5788 5789 5790 5791 5793 5794 5796 5801 5802 5800 5804 5812 5815 5814 5817 5818 5819 5821 5822 5823 5825 5826 5828 5829 5830 5832 5833 5834 5835 5836 5838 5840 5841 5842 5842 5843 5844 5844 5846 5847 5848 5849 5850 5851 5851 5852 5853 5854 5854 5855 5855 5857 5857 5858 5858 5858 5858 5858 5857 5857 5856 5857 5857 5857 5857 5857 5857 5856 5855 5855
5727 5729 5734 5739 5742 5746 5754 5758 5759 5764 5767 5766 5772 5777 5779 5781 5784 5786 5787 5787 5789 5790 5793 5798 5799 5797 5799 5807 5813 5812 5814 5816 5817 5818 5819 5820 5822 5823 5824 5826 5827 5829 5829 5831 5832 5833 5835 5836 5837 5838 5839 5840 5841 5842 5843 5843 5844 5846 5847 5847 5848 5849 5849 5850 5851 5851 5852 5853 5853 5854 5855 5855 5855 5854 5853 5853 5853 5853 5853 5853 5853 5853 5853 5852 5851 5851
5723 5727 5729 5732 5738 5745 5750 5753 5756 5761 5761 5763 5769 5773 5775 5777 5780 5782 5782 5784 5785 5786 5789 5794 5796 5795 5795 5802 5809 5811 5812 5814 5814 5815 5816 5817 5818 5819 5820 5822 5824 5825 5827 5828 5829 5830 5831 5832 5833 5834 5836 5838 5839 5839 5840 5840 5841 5842 5843 5843 5844 5844 5845 5846 5847 5847 5848 5849 5850 5850 5851 5851 5851 5850 5850 5849 5849 5850 5849 5849 5849 5849 5849 5849 5848 5847
5717 5720 5722 5729 5737 5741 5743 5747 5752 5755 5757 5760 5765 5769 5772 5774 5776 5777 5778 5779 5781 5782 5786 5790 5792 5792 5792 5797 5806 5810 5811 5812 5812 5812 5812 5813 5815 5816 5816 5818 5820 5822 5823 5824 5824 5826 5826 5827 5829 5831 5833 5834 5836 5837 5837 5837 5838 5839 5839 5839 5840 5841 5841 5842 5843 5843 5844 5844 5846 5847 5847 5847 5847 5846 5846 5846 5846 5846 5846 5845 5844 5845 5846 5845 5844 5843
5710 5714 5720 5728 5732 5734 5737 5742 5746 5748 5753 5757 5761 5765 5768 5769 5771 5772 5774 5775 5777 5779 5781 5785 5789 5790 5791 5795 5802 5808 5809 5808 5809 5809 5809 5810 5811 5812 5814 5814 5816 5818 5819 5820 5821 5822 5823 5824 5825 5827 5828 5830 5831 5833 5834 5834 5834 5835 5835 5835 5836 5837 5837 5838 5839 5839 5840 5840 5841 5843 5843 5843 5843 5843 5843 5842 5842 5842 5842 5841 5840 5841 5842 5841 5841 5840
5705 5708 5713 5720 5724 5728 5733 5738 5741 5745 5751 5754 5757 5761 5762 5762 5764 5766 5769 5771 5774 5776 5777 5781 5786 5788 5791 5792 5796 5803 5805 5805 5806 5806 5805 5806 5806 5808 5809 5811 5812 5814 5815 5817 5818 5819 5819 5820 5821 5822 5823 5824 5826 5828 5829 5829 5830 5831 5832 5832 5833 5833 5833 5834 5834 5835 5835 5836 5837 5838 5838 5838 5838 5839 5839 5838 5838 5838 5838 5837 5836 5837 5837 5836 5836 5836
5697 5698 5704 5713 5719 5726 5731 5735 5740 5745 5750 5751 5753 5756 5756 5756 5761 5764 5766 5769 5772 5774 5775 5777 5781 5785 5788 5789 5792 5798 5801 5801 5802 5803 5803 5803 5803 5804 5805 5807 5809 5810 5811 5813 5814 5815 5816 5816 5817 5818 5818 5820 5821 5822 5824 5825 5826 5827 5828 5828 5829 5829 5829 5830 5830 5831 5831 5832 5832 5833 5833 5834 5834 5834 5834 5834 5834 5834 5833 5832 5832 5832 5832 5832 5831 5831
5695 5698 5706 5715 5718 5724 5728 5729 5734 5738 5740 5742 5745 5747 5749 5754 5759 5760 5762 5765 5768 5769 5770 5772 5776 5781 5784 5785 5789 5793 5796 5797 5798 5799 5800 5800 5800 5801 5801 5803 5805 5806 5807 5808 5810 5811 5812 5812 5813 5814 5814 5814 5816 5817 5818 5819 5820 5822 5823 5824 5824 5825 5825 5825 5826 5827 5827 5828 5828 5828 5829 5830 5829 5830 5830 5830 5830 5830 5829 5828 5827 5828 5828 5827 5827 5827
5695 5700 5708 5714 5716 5721 5722 5723 5729 5733 5733 5734 5736 5739 5746 5751 5753 5754 5757 5760 5762 5763 5765 5769 5773 5778 5780 5781 5785 5789 5791 5794 5795 5795 5797 5797 5797 5798 5799 5799 5800 5801 5803 5804 5805 5806 5807 5808 5809 5809 5809 5810 5810 5811 5813 5814 5815 5816 5817 5818 5819 5820 5820 5821 5822 5822 5823 5823 5823 5824 5824 5825 5825 5825 5825 5825 5826 5825 5824 5824 5824 5824 5824 5823 5823 5822
5692 5697 5702 5706 5710 5714 5716 5719 5726 5728 5728 5729 5732 5739 5746 5747 5747 5751 5753 5756 5757 5758 5762 5767 5769 5773 5777 5779 5783 5786 5788 5789 5791 5792 5793 5794 5795 5795 5796 5796 5796 5797 5798 5800 5801 5802 5803 5804 5804 5805 5805 5806 5806 5806 5807 5808 5809 5810 5812 5813 5814 5815 5816 5817 5817 5817 5818 5819 5819 5819 5819 5820 5820 5820 5820 5820 5821 5820 5819 5819 5820 5820 5819 5818 5818 5817
5689 5693 5696 5699 5702 5705 5708 5711 5715 5717 5719 5725 5731 5738 5741 5740 5742 5746 5748 5750 5752 5754 5758 5763 5765 5769 5774 5778 5780 5782 5784 5784 5786 5788 5790 5791 5792 5792 5793 5793 5793 5793 5794 5795 5796 5798 5799 5800 5800 5801 5801 5802 5802 5802 5803 5803 5804 5805 5806 5808 5809 5810 5811 5812 5812 5812 5813 5814 5814 5814 5814 5815 5815 5815 5815 5815 5815 5815 5815 5815 5815 5815 5814 5813 5812 5812
5685 5687 5691 5694 5698 5700 5700 5702 5706 5710 5715 5722 5726 5730 5732 5734 5737 5740 5743 5746 5748 5750 5754 5757 5760 5765 5772 5776 5777 5778 5780 5781 5781 5783 5785 5786 5787 5788 5789 5789 5789 5790 5790 5790 5791 5792 5794 5796 5797 5797 5797 5798 5798 5798 5799 5799 5800 5801 5801 5803 5803 5804 5805 5806 5806 5807 5808 5808 5808 5808 5809 5810 5810 5809 5809 5810 5810 5810 5810 5810 5810 5810 5808 5807 5807 5806
5679 5681 5686 5689 5691 5693 5694 5698 5706 5710 5714 5720 5723 5725 5727 5728 5731 5734 5737 5741 5742 5744 5749 5751 5755 5762 5769 5772 5774 5774 5775 5776 5776 5777 5779 5781 5783 5784 5785 5786 5786 5787 5787 5787 5787 5788 5789 5791 5792 5793 5793 5794 5794 5794 5795 5795 5796 5797 5797 5798 5798 5798 5799 5800 5801 5802 5802 5802 5803 5803 5804 5804 5804 5804 5804 5804 5805 5805 5805 5805 5805 5804 5802 5801 5801 5800
5672 5677 5681 5683 5685 5689 5693 5699 5705 5708 5712 5717 5719 5721 5724 5725 5728 5730 5733 5738 5741 5743 5748 5750 5752 5760 5766 5768 5771 5771 5770 5771 5772 5773 5773 5775 5776 5778 5780 5781 5783 5783 5784 5784 5784 5784 5784 5786 5787 5788 5789 5789 5790 5790 5790 5791 5791 5792 5792 5792 5793 5793 5794 5795 5796 5796 5797 5797 5797 5798 5798 5798 5798 5798 5799 5799 5799 5799 5799 5799 5798 5797 5796 5796 5795 5794
5670 5674 5677 5679 5682 5686 5689 5695 5699 5703 5707 5710 5710 5713 5717 5719 5724 5728 5731 5736 5739 5741 5745 5745 5747 5756 5761 5763 5766 5768 5767 5767 5768 5769 5769 5769 5770 5772 5773 5776 5777 5778 5779 5780 5781 5781 5780 5781 5782 5783 5784 5784 5785 5785 5785 5786 5786 5786 5787 5787 5787 5787 5788 5789 5790 5791 5791 5791 5792 5792 5792 5792 5792 5792 5792 5792 5792 5792 5792 5792 5792 5791 5790 5790 5789 5787
5667 5669 5670 5674 5677 5680 5684 5689 5694 5698 5700 5701 5704 5710 5713 5716 5721 5724 5727 5730 5732 5735 5740 5739 5742 5752 5757 5759 5763 5764 5763 5763 5763 5764 5764 5764 5765 5767 5768 5770 5771 5772 5774 5775 5776 5777 5777 5776 5776 5777 5778 5779 5779 5780 5780 5780 5781 5781 5781 5781 5781 5781 5782 5783 5784 5785 5785 5786 5786 5786 5786 5786 5786 5786 5786 5786 5786 5786 5785 5785 5785 5784 5784 5783 5782 5781
5663 5662 5665 5669 5671 5673 5676 5681 5685 5689 5693 5698 5705 5709 5711 5714 5716 5717 5721 5723 5723 5729 5734 5732 5738 5749 5752 5755 5760 5759 5757 5758 5757 5757 5759 5759 5761 5763 5764 5765 5765 5766 5768 5769 5770 5772 5772 5773 5772 5772 5773 5773 5774 5775 5775 5776 5776 5776 5776 5776 5776 5776 5776 5777 5778 5779 5779 5780 5780 5780 5780 5780 5780 5779 5779 5779 5779 5779 5778 5779 5778 5777 5777 5776 5776 5774
5657 5658 5660 5661 5661 5663 5668 5674 5680 5687 5693 5697 5700 5702 5703 5706 5707 5710 5714 5713 5715 5725 5728 5726 5735 5746 5747 5748 5753 5754 5752 5752 5751 5751 5752 5753 5755 5757 5759 5760 5760 5761 5762 5763 5764 5765 5766 5767 5768 5768 5768 5769 5769 5770 5770 5771 5771 5771 5771 5771 5771 5771 5771 5771 5771 5772 5773 5773 5774 5774 5774 5774 5773 5773 5773 5773 5772 5772 5772 5772 5772 5771 5770 5769 5768 5767
5652 5654 5656 5658 5662 5666 5670 5676 5683 5688 5689 5691 5692 5694 5695 5696 5699 5703 5704 5705 5714 5722 5719 5721 5733 5741 5741 5744 5747 5748 5747 5746 5746 5747 5747 5748 5749 5750 5752 5753 5754 5755 5757 5758 5758 5759 5760 5762 5763 5763 5764 5764 5764 5764 5764 5765 5765 5765 5765 5765 5765 5765 5764 5765 5765 5765 5766 5767 5767 5768 5768 5767 5767 5767 5767 5766 5766 5766 5765 5765 5765 5764 5763 5762 5761 5760
5646 5648 5653 5659 5663 5666 5670 5676 5682 5685 5686 5689 5691 5692 5694 5696 5698 5699 5699 5706 5716 5715 5711 5722 5733 5735 5739 5742 5740 5740 5741 5741 5742 5742 5741 5742 5743 5743 5744 5746 5747 5749 5750 5751 5752 5753 5754 5755 5757 5758 5758 5759 5759 5758 5758 5758 5758 5758 5758 5758 5758 5758 5758 5758 5759 5759 5759 5760 5761 5761 5761 5761 5761 5760 5760 5760 5759 5759 5759 5758 5758 5757 5756 5755 5754 5753
5641 5645 5651 5655 5657 5661 5667 5671 5674 5678 5681 5685 5687 5689 5692 5694 5695 5696 5700 5708 5712 5707 5711 5725 5729 5728 5737 5737 5732 5735 5736 5735 5737 5736 5735 5736 5736 5737 5738 5739 5740 5742 5744 5745 5746 5747 5748 5749 5751 5751 5752 5753 5753 5752 5752 5752 5751 5752 5752 5752 5752 5752 5752 5752 5753 5753 5753 5753 5754 5754 5754 5754 5754 5754 5753 5753 5752 5752 5751 5751 5750 5750 5749 5748 5747 5746
5639 5643 5646 5650 5654 5658 5661 5664 5668 5672 5674 5676 5679 5682 5685 5687 5688 5691 5697 5704 5706 5703 5711 5721 5720 5722 5733 5732 5729 5732 5730 5728 5731 5730 5729 5730 5730 5731 5732 5732 5734 5737 5738 5739 5740 5741 5742 5743 5744 5745 5745 5746 5746 5746 5746 5746 5746 5746 5746 5746 5746 5746 5746 5746 5746 5746 5746 5746 5746 5746 5747 5747 5747 5746 5746 5746 5745 5745 5744 5743 5743 5742 5741 5740 5740 5739
5635 5638 5641 5647 5650 5652 5656 5660 5663 5665 5667 5670 5673 5676 5677 5680 5683 5687 5693 5699 5698 5699 5709 5715 5711 5718 5729 5727 5725 5726 5723 5722 5725 5724 5723 5724 5724 5725 5726 5727 5730 5731 5732 5733 5733 5735 5736 5736 5737 5738 5739 5740 5740 5741 5741 5741 5741 5741 5740 5740 5740 5739 5739 5740 5739 5739 5739 5739 5739 5739 5739 5739 5739 5739 5739 5739 5738 5738 5737 5736 5736 5735 5734 5733 5733 5731
5629 5632 5636 5640 5641 5645 5652 5655 5656 5659 5662 5662 5664 5667 5672 5676 5681 5686 5691 5694 5693 5697 5707 5707 5706 5716 5724 5720 5718 5720 5719 5719 5720 5718 5716 5716 5717 5720 5722 5724 5726 5726 5726 5727 5728 5729 5730 5730 5731 5732 5733 5734 5735 5735 5735 5735 5735 5734 5734 5734 5733 5732 5732 5732 5732 5731 5731 5731 5731 5731 5732 5732 5732 5732 5732 5731 5731 5730 5730 5729 5729 5728 5727 5726 5725 5724
5624 5626 5630 5633 5635 5640 5645 5647 5650 5653 5651 5650 5657 5666 5671 5675 5680 5683 5685 5688 5690 5695 5698 5699 5704 5713 5714 5711 5713 5715 5714 5714 5714 5711 5710 5710 5712 5715 5718 5721 5722 5721 5722 5723 5723 5724 5724 5724 5725 5726 5727 5727 5728 5728 5728 5728 5728 5727 5727 5727 5726 5726 5725 5725 5725 5724 5724 5724 5724 5724 5725 5724 5725 5724 5724 5724 5724 5723 5723 5722 5722 5721 5720 5719 5718 5717
5619 5622 5625 5629 5631 5633 5637 5641 5644 5641 5639 5647 5661 5669 5670 5671 5674 5676 5680 5684 5687 5689 5692 5696 5702 5705 5704 5705 5708 5708 5708 5709 5708 5707 5707 5706 5707 5709 5713 5715 5716 5717 5719 5719 5719 5719 5718 5718 5718 5719 5720 5720 5720 5720 5721 5721 5721 5720 5720 5720 5719 5719 5719 5718 5718 5718 5717 5717 5717 5717 5717 5717 5717 5717 5716 5717 5716 5716 5716 5715 5714 5714 5713 5712 5711 5710
5614 5617 5620 5623 5625 5628 5633 5636 5633 5632 5640 5653 5661 5662 5662 5664 5668 5672 5675 5678 5681 5683 5687 5691 5695 5697 5698 5700 5701 5701 5703 5704 5704 5705 5705 5704 5703 5705 5707 5708 5709 5711 5713 5714 5714 5714 5713 5713 5713 5713 5714 5714 5713 5714 5713 5713 5714 5713 5714 5714 5713 5712 5712 5711 5711 5711 5710 5711 5711 5711 5711 5710 5710 5710 5710 5709 5709 5709 5709 5708 5707 5707 5706 5705 5704 5703
5607 5610 5613 5615 5617 5621 5624 5625 5626 5634 5645 5650 5651 5652 5655 5659 5663 5666 5669 5672 5677 5680 5682 5686 5691 5693 5694 5695 5696 5697 5699 5698 5698 5702 5704 5701 5700 5701 5702 5704 5704 5704 5707 5708 5708 5708 5709 5709 5709 5709 5709 5708 5708 5708 5707 5707 5707 5707 5707 5707 5706 5706 5705 5705 5705 5704 5704 5704 5704 5704 5704 5704 5704 5704 5703 5703 5702 5702 5702 5701 5700 5700 5699 5698 5698 5697
5601 5604 5606 5607 5610 5615 5618 5621 5628 5636 5638 5639 5643 5649 5653 5659 5663 5664 5666 5671 5675 5677 5678 5683 5688 5689 5688 5690 5691 5691 5691 5690 5694 5702 5703 5697 5695 5697 5699 5700 5700 5700 5702 5702 5701 5703 5704 5703 5704 5704 5703 5703 5703 5703 5702 5702 5701 5700 5700 5699 5699 5699 5699 5699 5699 5697 5697 5697 5697 5697 5697 5697 5697 5697 5696 5696 5695 5695 5694 5694 5693 5692 5692 5691 5691 5690
5594 5597 5600 5603 5607 5613 5616 5620 5626 5629 5630 5637 5645 5650 5653 5658 5661 5660 5659 5663 5668 5670 5673 5677 5681 5681 5681 5683 5684 5684 5685 5686 5694 5703 5699 5690 5690 5694 5695 5696 5696 5696 5697 5697 5697 5697 5697 5697 5698 5698 5697 5697 5697 5697 5697 5696 5695 5694 5693 5693 5693 5693 5692 5692 5692 5691 5691 5690 5690 5690 5690 5690 5690 5690 5690 5689 5689 5688 5688 5687 5686 5686 5685 5685 5684 5684
5588 5592 5597 5599 5603 5607 5612 5617 5622 5625 5632 5640 5644 5646 5648 5651 5653 5652 5650 5655 5663 5665 5666 5670 5674 5674 5675 5677 5678 5678 5680 5686 5694 5697 5690 5685 5688 5690 5690 5692 5692 5691 5691 5692 5693 5693 5692 5691 5691 5691 5691 5692 5692 5692 5692 5691 5690 5689 5688 5687 5687 5686 5686 5685 5685 5685 5685 5684 5683 5683 5682 5682 5683 5683 5683 5682 5682 5682 5681 5681 5680 5680 5679 5679 5678 5677
5582 5586 5589 5593 5598 5604 5609 5614 5619 5625 5632 5636 5638 5641 5643 5645 5647 5645 5644 5653 5662 5662 5661 5664 5667 5668 5670 5672 5672 5674 5678 5684 5689 5688 5683 5683 5685 5685 5685 5687 5686 5685 5686 5686 5686 5687 5687 5686 5686 5685 5685 5685 5686 5686 5686 5685 5684 5683 5682 5681 5680 5680 5679 5679 5678 5678 5678 5677 5677 5676 5675 5675 5675 5675 5675 5675 5675 5675 5675 5675 5674 5673 5673 5672 5672 5671
5577 5580 5584 5590 5596 5602 5606 5610 5616 5622 5627 5631 5633 5636 5637 5638 5638 5638 5641 5652 5657 5655 5654 5657 5660 5663 5666 5667 5669 5672 5676 5679 5681 5680 5679 5680 5679 5679 5679 5680 5680 5680 5680 5679 5680 5680 5680 5680 5680 5679 5679 5679 5679 5679 5679 5678 5678 5677 5676 5675 5674 5674 5673 5673 5672 5672 5671 5671 5670 5669 5669 5668 5668 5668 5668 5668 5668 5668 5668 5668 5667 5666 5666 5665 5664 5664
5571 5575 5579 5585 5591 5597 5602 5607 5611 5616 5622 5626 5627 5628 5630 5630 5631 5634 5640 5646 5647 5646 5649 5653 5657 5662 5663 5664 5667 5670 5671 5673 5674 5674 5674 5673 5673 5673 5673 5673 5675 5675 5675 5674 5674 5674 5673 5673 5673 5673 5673 5673 5673 5673 5672 5672 5671 5670 5669 5669 5668 5667 5667 5666 5666 5665 5664 5664 5663 5663 5662 5662 5662 5662 5662 5661 5661 5661 5661 5660 5660 5659 5659 5658 5657 5656
5570 5572 5576 5581 5587 5591 5595 5598 5603 5610 5617 5620 5619 5622 5625 5625 5627 5631 5635 5638 5640 5642 5646 5650 5655 5658 5659 5661 5663 5664 5665 5666 5666 5667 5667 5667 5667 5668 5668 5669 5670 5670 5670 5670 5669 5668 5668 5667 5666 5666 5667 5666 5666 5666 5666 5665 5665 5664 5663 5662 5661 5661 5660 5660 5659 5658 5658 5657 5657 5656 5656 5656 5656 5656 5655 5655 5655 5655 5654 5654 5653 5652 5652 5651 5650 5649
5565 5569 5575 5582 5586 5588 5591 5595 5601 5608 5613 5613 5615 5619 5622 5623 5625 5628 5631 5634 5637 5640 5643 5646 5649 5651 5653 5656 5656 5657 5658 5659 5659 5660 5661 5661 5662 5663 5663 5663 5664 5664 5664 5664 5663 5663 5663 5661 5661 5661 5660 5660 5660 5660 5659 5659 5658 5657 5656 5656 5655 5654 5654 5653 5652 5652 5651 5651 5650 5650 5650 5649 5649 5649 5649 5649 5648 5648 5648 5647 5646 5646 5645 5644 5643 5642
5563 5569 5576 5582 5585 5588 5593 5597 5602 5607 5609 5610 5613 5617 5618 5620 5624 5626 5629 5632 5634 5636 5639 5641 5643 5645 5647 5649 5649 5650 5651 5652 5653 5654 5655 5656 5657 5657 5656 5657 5657 5657 5657 5657 5657 5657 5657 5656 5656 5655 5654 5654 5654 5653 5653 5652 5652 5651 5650 5650 5649 5648 5647 5647 5646 5646 5645 5645 5645 5644 5644 5643 5643 5643 5642 5642 5642 5642 5641 5640 5640 5639 5638 5637 5637 5636
5565 5568 5572 5576 5579 5583 5587 5592 5597 5602 5604 5607 5610 5613 5615 5618 5621 5623 5625 5627 5629 5631 5634 5635 5637 5639 5640 5641 5643 5645 5645 5646 5647 5648 5649 5650 5650 5650 5650 5650 5650 5651 5651 5651 5651 5651 5651 5650 5650 5649 5649 5648 5648 5647 5647 5646 5646 5646 5645 5644 5644 5643 5642 5641 5641 5640 5640 5640 5639 5639 5638 5638 5638 5637 5637 5637 5636 5636 5635 5635 5634 5634 5633 5632 5632 5631
5560 5563 5566 5568 5572 5575 5580 5586 5590 5594 5597 5601 5605 5609 5612 5615 5617 5619 5620 5621 5622 5625 5627 5629 5631 5632 5634 5636 5638 5639 5640 5640 5640 5641 5642 5643 5643 5644 5645 5645 5646 5646 5647 5647 5647 5647 5646 5645 5644 5644 5643 5643 5642 5642 5642 5641 5641 5640 5640 5640 5639 5638 5638 5637 5636 5636 5635 5635 5634 5634 5633 5633 5632 5632 5631 5631 5631 5630 5630 5629 5629 5628 5628 5627 5626 5626
5555 5558 5559 5562 5566 5571 5575 5580 5583 5586 5591 5596 5599 5603 5607 5609 5611 5612 5613 5615 5617 5618 5620 5622 5624 5626 5629 5631 5632 5633 5633 5634 5634 5634 5635 5636 5638 5639 5640 5640 5641 5641 5641 5641 5642 5641 5641 5640 5639 5638 5638 5638 5637 5637 5636 5636 5636 5635 5635 5635 5634 5634 5634 5633 5632 5632 5631 5630 5630 5629 5628 5628 5627 5627 5626 5626 5625 5625 5624 5624 5624 5623 5622 5621 5621 5620
5550 5552 5556 5560 5563 5565 5570 5575 5578 5581 5585 5589 5592 5595 5599 5601 5603 5605 5607 5609 5611 5613 5614 5616 5619 5621 5624 5625 5625 5625 5626 5626 5627 5627 5628 5630 5632 5633 5634 5635 5635 5635 5635 5635 5635 5635 5635 5634 5634 5633 5633 5632 5632 5632 5631 5631 5631 5630 5630 5630 5629 5629 5629 5628 5628 5627 5626 5626 5625 5624 5624 5623 5622 5622 5621 5621 5620 5619 5619 5618 5617 5617 5616 5614 5614 5613
5544 5549 5554 5556 5557 5563 5569 5574 5576 5579 5582 5585 5587 5590 5593 5595 5597 5599 5601 5603 5605 5607 5610 5612 5614 5616 5617 5617 5617 5617 5618 5618 5620 5621 5622 5624 5626 5626 5627 5628 5629 5629 5629 5629 5628 5628 5629 5628 5628 5628 5628 5627 5627 5627 5626 5626 5626 5626 5625 5625 5624 5624 5624 5623 5623 5622 5621 5621 5620 5619 5619 5618 5617 5617 5616 5615 5614 5614 5613 5612 5611 5610 5609 5607 5607 5606
5542 5547 5549 5551 5556 5564 5569 5570 5572 5576 5578 5580 5582 5585 5587 5589 5591 5593 5595 5597 5599 5602 5604 5605 5606 5607 5608 5608 5609 5609 5610 5611 5613 5614 5616 5618 5619 5620 5621 5622 5622 5623 5622 5622 5622 5622 5622 5622 5622 5622 5621 5621 5621 5621 5621 5621 5620 5620 5620 5620 5619 5619 5618 5618 5617 5617 5616 5616 5615 5614 5614 5613 5612 5611 5610 5609 5609 5608 5606 5605 5604 5603 5602 5601 5600 5599